| time (UTC) | temp C | wind direction | speed KPH | gust KPH | rain 1hr cm | rain 24hr cm | rain mn cm | humidity % | barometer mb |
| 20260509222211 | 33 | 107 | 3.2 | 9.7 | 0.00 | 0.00 | 0.00 | 41 | 1007.5 |
| 20260509221004 | 32 | 11 | 1.6 | 11.3 | 0.00 | 0.00 | 0.00 | 41 | 1007.5 |
| 20260509220211 | 32 | 43 | 0.0 | 6.4 | 0.00 | 0.00 | 0.00 | 41 | 1007.6 |
| 20260509215004 | 32 | 26 | 4.8 | 6.4 | 0.00 | 0.00 | 0.00 | 40 | 1007.7 |
| 20260509214004 | 32 | 128 | 3.2 | 11.3 | 0.00 | 0.00 | 0.00 | 40 | 1007.8 |
| 20260509213004 | 32 | 360 | 4.8 | 8.0 | 0.00 | 0.00 | 0.00 | 42 | 1007.9 |
| 20260509212004 | 32 | 5 | 3.2 | 12.9 | 0.00 | 0.00 | 0.00 | 41 | 1008.0 |
| 20260509211211 | 32 | 17 | 3.2 | 11.3 | 0.00 | 0.00 | 0.00 | 41 | 1008.2 |
| 20260509210212 | 32 | 136 | 3.2 | 9.7 | 0.00 | 0.00 | 0.00 | 42 | 1008.3 |
| 20260509205005 | 32 | 110 | 4.8 | 9.7 | 0.00 | 0.00 | 0.00 | 40 | 1008.5 |
| 20260509204004 | 33 | 286 | 0.0 | 3.2 | 0.00 | 0.00 | 0.00 | 40 | 1008.6 |
| 20260509203004 | 32 | 290 | 4.8 | 6.4 | 0.00 | 0.00 | 0.00 | 45 | 1008.7 |
| 20260509202211 | 32 | 355 | 3.2 | 6.4 | 0.00 | 0.00 | 0.00 | 42 | 1008.8 |
| 20260509201211 | 32 | 200 | 3.2 | 9.7 | 0.00 | 0.00 | 0.00 | 45 | 1008.9 |
| 20260509200004 | 32 | 175 | 3.2 | 9.7 | 0.00 | 0.10 | 0.00 | 44 | 1009.0 |
| 20260509195004 | 31 | 279 | 4.8 | 8.0 | 0.00 | 0.10 | 0.00 | 45 | 1009.1 |
| 20260509194212 | 31 | 190 | 3.2 | 8.0 | 0.00 | 0.10 | 0.00 | 45 | 1009.3 |
| 20260509193004 | 31 | 251 | 4.8 | 9.7 | 0.00 | 0.10 | 0.00 | 47 | 1009.4 |
| 20260509192004 | 31 | 194 | 4.8 | 11.3 | 0.00 | 0.10 | 0.00 | 47 | 1009.5 |
| 20260509191004 | 30 | 250 | 3.2 | 8.0 | 0.00 | 0.10 | 0.00 | 49 | 1009.5 |
| 20260509190005 | 30 | 62 | 1.6 | 8.0 | 0.00 | 0.10 | 0.00 | 48 | 1009.7 |
| 20260509185004 | 30 | 291 | 3.2 | 8.0 | 0.00 | 0.10 | 0.00 | 48 | 1009.8 |
| 20260509184004 | 30 | 264 | 4.8 | 9.7 | 0.00 | 0.10 | 0.00 | 49 | 1009.9 |
| 20260509183004 | 30 | 297 | 1.6 | 11.3 | 0.00 | 0.10 | 0.00 | 49 | 1009.9 |
| 20260509182004 | 30 | 263 | 6.4 | 9.7 | 0.00 | 0.10 | 0.00 | 53 | 1010.1 |
| 20260509181212 | 30 | 259 | 6.4 | 9.7 | 0.00 | 0.10 | 0.00 | 52 | 1010.3 |
| 20260509180004 | 29 | 253 | 3.2 | 8.0 | 0.00 | 0.10 | 0.00 | 54 | 1010.4 |
| 20260509175004 | 29 | 196 | 1.6 | 8.0 | 0.00 | 0.10 | 0.00 | 53 | 1010.4 |
| 20260509174004 | 28 | 248 | 1.6 | 8.0 | 0.00 | 0.10 | 0.00 | 53 | 1010.5 |
| 20260509173211 | 28 | 232 | 4.8 | 9.7 | 0.00 | 0.10 | 0.00 | 53 | 1010.8 |
| 20260509172005 | 28 | 250 | 4.8 | 11.3 | 0.00 | 0.10 | 0.00 | 53 | 1010.8 |
| 20260509171005 | 28 | 344 | 3.2 | 8.0 | 0.00 | 0.10 | 0.00 | 56 | 1010.9 |
| 20260509170005 | 28 | 322 | 1.6 | 11.3 | 0.00 | 0.10 | 0.00 | 57 | 1011.0 |
| 20260509165004 | 27 | 302 | 3.2 | 9.7 | 0.00 | 0.10 | 0.00 | 53 | 1011.1 |
| 20260509164004 | 27 | 253 | 6.4 | 11.3 | 0.00 | 0.10 | 0.00 | 53 | 1011.1 |
| 20260509163212 | 26 | 301 | 4.8 | 8.0 | 0.00 | 0.10 | 0.00 | 52 | 1011.1 |
| 20260509162004 | 26 | 334 | 1.6 | 9.7 | 0.00 | 0.10 | 0.00 | 60 | 1011.1 |
| 20260509161004 | 26 | 335 | 4.8 | 8.0 | 0.00 | 0.10 | 0.00 | 65 | 1011.1 |
| 20260509160004 | 26 | 5 | 3.2 | 6.4 | 0.00 | 0.10 | 0.00 | 67 | 1011.3 |
| 20260509155004 | 26 | 276 | 3.2 | 8.0 | 0.00 | 0.10 | 0.00 | 67 | 1011.3 |
| 20260509154004 | 25 | 300 | 1.6 | 8.0 | 0.00 | 0.10 | 0.00 | 69 | 1011.1 |
| 20260509153211 | 25 | 269 | 1.6 | 6.4 | 0.00 | 0.10 | 0.00 | 70 | 1011.2 |
| 20260509152004 | 25 | 281 | 3.2 | 6.4 | 0.00 | 0.10 | 0.00 | 70 | 1011.2 |
| 20260509151211 | 25 | 292 | 6.4 | 11.3 | 0.00 | 0.10 | 0.00 | 70 | 1011.2 |
| 20260509150004 | 24 | 329 | 4.8 | 6.4 | 0.00 | 0.10 | 0.00 | 72 | 1011.2 |
| 20260509145004 | 24 | 274 | 3.2 | 6.4 | 0.00 | 0.10 | 0.00 | 73 | 1011.3 |
| 20260509144004 | 23 | 344 | 4.8 | 11.3 | 0.00 | 0.10 | 0.00 | 74 | 1011.3 |
| 20260509143004 | 23 | 273 | 4.8 | 9.7 | 0.00 | 0.10 | 0.00 | 74 | 1011.2 |
| 20260509142212 | 23 | 338 | 3.2 | 9.7 | 0.00 | 0.10 | 0.00 | 75 | 1011.1 |
| 20260509141004 | 23 | 347 | 1.6 | 9.7 | 0.00 | 0.10 | 0.00 | 76 | 1011.1 |
| 20260509140005 | 22 | 252 | 1.6 | 8.0 | 0.00 | 0.10 | 0.00 | 77 | 1011.1 |
| 20260509135004 | 22 | 340 | 4.8 | 8.0 | 0.00 | 0.10 | 0.00 | 79 | 1011.1 |
| 20260509134005 | 21 | 335 | 3.2 | 9.7 | 0.00 | 0.10 | 0.00 | 81 | 1011.0 |
| 20260509133211 | 21 | 45 | 4.8 | 12.9 | 0.00 | 0.10 | 0.00 | 83 | 1010.8 |
| 20260509132004 | 20 | 346 | 4.8 | 14.5 | 0.00 | 0.10 | 0.00 | 83 | 1010.6 |
| 20260509131004 | 20 | 5 | 6.4 | 12.9 | 0.00 | 0.10 | 0.00 | 85 | 1010.6 |
| 20260509130004 | 19 | 5 | 3.2 | 9.7 | 0.00 | 0.10 | 0.00 | 86 | 1010.6 |
| 20260509125211 | 19 | 355 | 3.2 | 8.0 | 0.00 | 0.10 | 0.00 | 88 | 1010.5 |
| 20260509124004 | 18 | 5 | 6.4 | 8.0 | 0.00 | 0.10 | 0.00 | 89 | 1010.4 |
| 20260509123211 | 18 | 351 | 3.2 | 4.8 | 0.00 | 0.10 | 0.00 | 90 | 1010.3 |
| 20260509122004 | 18 | 360 | 4.8 | 6.4 | 0.00 | 0.10 | 0.00 | 90 | 1010.3 |
| 20260509121003 | 18 | 5 | 1.6 | 8.0 | 0.00 | 0.10 | 0.00 | 90 | 1010.3 |
| 20260509120004 | 18 | 351 | 6.4 | 6.4 | 0.00 | 0.15 | 0.00 | 89 | 1010.4 |
| 20260509115004 | 18 | 35 | 1.6 | 4.8 | 0.00 | 0.15 | 0.00 | 88 | 1010.4 |
| 20260509114004 | 18 | 309 | 0.0 | 4.8 | 0.00 | 0.15 | 0.00 | 88 | 1010.6 |
| 20260509113004 | 18 | 153 | 1.6 | 4.8 | 0.00 | 0.15 | 0.00 | 88 | 1010.6 |
| 20260509112004 | 19 | 245 | 3.2 | 4.8 | 0.00 | 0.15 | 0.00 | 88 | 1010.4 |
| 20260509111004 | 19 | 152 | 6.4 | 8.0 | 0.00 | 0.15 | 0.00 | 88 | 1010.2 |
| 20260509110004 | 20 | 231 | 1.6 | 6.4 | 0.00 | 0.15 | 0.00 | 88 | 1010.1 |
| 20260509105004 | 20 | 218 | 3.2 | 3.2 | 0.00 | 0.15 | 0.00 | 88 | 1009.7 |
| 20260509104004 | 20 | 131 | 1.6 | 8.0 | 0.00 | 0.15 | 0.00 | 88 | 1009.4 |
| 20260509103004 | 20 | 348 | 4.8 | 14.5 | 0.00 | 0.15 | 0.00 | 87 | 1009.1 |
| 20260509102004 | 20 | 23 | 12.9 | 19.3 | 0.00 | 0.15 | 0.00 | 87 | 1009.0 |
| 20260509101004 | 20 | 355 | 12.9 | 24.1 | 0.00 | 0.15 | 0.00 | 87 | 1008.9 |
| 20260509100005 | 21 | 162 | 1.6 | 24.1 | 0.00 | 0.15 | 0.00 | 88 | 1008.4 |
| 20260509095004 | 21 | 288 | 1.6 | 6.4 | 0.00 | 0.15 | 0.00 | 89 | 1007.9 |
| 20260509094004 | 21 | 198 | 3.2 | 12.9 | 0.00 | 0.15 | 0.00 | 90 | 1007.4 |
| 20260509093212 | 21 | 205 | 6.4 | 24.1 | 0.00 | 0.15 | 0.00 | 90 | 1006.9 |
| 20260509092005 | 20 | 166 | 17.7 | 24.1 | 0.00 | 0.15 | 0.00 | 91 | 1006.7 |
| 20260509091004 | 20 | 153 | 11.3 | 22.5 | 0.00 | 0.15 | 0.00 | 91 | 1006.8 |
| 20260509090005 | 20 | 196 | 4.8 | 16.1 | 0.00 | 0.15 | 0.00 | 90 | 1007.2 |
| 20260509085004 | 20 | 126 | 3.2 | 12.9 | 0.00 | 0.15 | 0.00 | 90 | 1008.4 |
| 20260509084004 | 20 | 166 | 11.3 | 14.5 | 0.00 | 0.15 | 0.00 | 90 | 1008.4 |
| 20260509083004 | 20 | 167 | 6.4 | 14.5 | 0.00 | 0.15 | 0.00 | 89 | 1008.6 |
| 20260509082004 | 20 | 146 | 6.4 | 19.3 | 0.00 | 0.15 | 0.00 | 90 | 1008.7 |
| 20260509081004 | 20 | 183 | 6.4 | 16.1 | 0.00 | 0.15 | 0.00 | 90 | 1008.9 |
| 20260509080004 | 20 | 132 | 14.5 | 16.1 | 0.00 | 0.15 | 0.00 | 90 | 1009.0 |
| 20260509075004 | 20 | 158 | 11.3 | 19.3 | 0.00 | 0.15 | 0.00 | 90 | 1009.5 |
| 20260509074004 | 20 | 117 | 11.3 | 16.1 | 0.00 | 0.15 | 0.00 | 89 | 1009.8 |
| 20260509073004 | 20 | 150 | 1.6 | 8.0 | 0.00 | 0.15 | 0.00 | 89 | 1010.7 |
| 20260509072004 | 20 | 191 | 1.6 | 4.8 | 0.00 | 0.15 | 0.00 | 90 | 1011.2 |
| 20260509071004 | 20 | 94 | 4.8 | 9.7 | 0.00 | 0.15 | 0.00 | 90 | 1011.6 |
| 20260509070211 | 20 | 351 | 4.8 | 14.5 | 0.00 | 0.15 | 0.00 | 91 | 1012.0 |
| 20260509065004 | 20 | 337 | 4.8 | 19.3 | 0.00 | 0.15 | 0.00 | 92 | 1012.6 |
| 20260509064004 | 20 | 350 | 8.0 | 16.1 | 0.00 | 0.15 | 0.00 | 92 | 1012.4 |
| 20260509063004 | 20 | 338 | 3.2 | 4.8 | 0.00 | 0.15 | 0.00 | 91 | 1011.8 |
| 20260509062005 | 20 | 284 | 0.0 | 6.4 | 0.00 | 0.15 | 0.00 | 91 | 1011.6 |
| 20260509061005 | 20 | 333 | 1.6 | 8.0 | 0.00 | 0.15 | 0.00 | 90 | 1011.7 |
| 20260509060004 | 20 | 355 | 1.6 | 6.4 | 0.00 | 0.15 | 0.00 | 90 | 1011.2 |
| 20260509055004 | 20 | 12 | 3.2 | 3.2 | 0.00 | 0.15 | 0.00 | 89 | 1010.5 |
| 20260509054004 | 20 | 128 | 1.6 | 3.2 | 0.00 | 0.15 | 0.00 | 89 | 1010.3 |
| 20260509053004 | 20 | 157 | 1.6 | 3.2 | 0.00 | 0.15 | 0.00 | 88 | 1010.4 |
| 20260509052004 | 20 | 121 | 0.0 | 1.6 | 0.00 | 0.15 | 0.00 | 88 | 1010.6 |
| 20260509051211 | 20 | 115 | 0.0 | 3.2 | 0.00 | 0.15 | 0.00 | 88 | 1010.7 |
| 20260509050004 | 20 | 94 | 1.6 | 1.6 | 0.00 | 0.15 | 0.00 | 88 | 1010.5 |
| 20260509045004 | 21 | 105 | 0.0 | 3.2 | 0.00 | 0.15 | 0.00 | 88 | 1010.4 |
| 20260509044004 | 21 | 117 | 1.6 | 8.0 | 0.00 | 0.15 | 0.00 | 88 | 1009.9 |
| 20260509043005 | 21 | 117 | 3.2 | 8.0 | 0.00 | 0.15 | 0.00 | 87 | 1009.8 |
| 20260509042005 | 21 | 125 | 3.2 | 6.4 | 0.00 | 0.15 | 0.00 | 87 | 1009.9 |
| 20260509041005 | 21 | 145 | 1.6 | 11.3 | 0.00 | 0.15 | 0.00 | 87 | 1009.7 |
| 20260509040005 | 21 | 131 | 3.2 | 12.9 | 0.00 | 0.15 | 0.00 | 86 | 1009.4 |
| 20260509035004 | 21 | 152 | 4.8 | 8.0 | 0.00 | 0.15 | 0.00 | 86 | 1009.4 |
| 20260509034005 | 21 | 123 | 4.8 | 11.3 | 0.00 | 0.15 | 0.00 | 86 | 1009.4 |
| 20260509033004 | 21 | 167 | 6.4 | 16.1 | 0.00 | 0.15 | 0.00 | 85 | 1009.3 |
| 20260509032004 | 21 | 142 | 6.4 | 11.3 | 0.00 | 0.15 | 0.00 | 85 | 1009.4 |
| 20260509031004 | 22 | 157 | 3.2 | 12.9 | 0.00 | 0.15 | 0.00 | 85 | 1009.3 |
| 20260509030212 | 22 | 165 | 3.2 | 9.7 | 0.00 | 0.15 | 0.00 | 85 | 1009.0 |
| 20260509025004 | 22 | 158 | 8.0 | 11.3 | 0.00 | 0.15 | 0.00 | 84 | 1008.9 |
| 20260509024004 | 22 | 142 | 4.8 | 11.3 | 0.00 | 0.15 | 0.00 | 84 | 1008.8 |
| 20260509023004 | 22 | 174 | 4.8 | 11.3 | 0.00 | 0.15 | 0.00 | 84 | 1008.6 |
| 20260509022004 | 22 | 146 | 4.8 | 12.9 | 0.00 | 0.15 | 0.00 | 84 | 1008.6 |
| 20260509021004 | 22 | 136 | 6.4 | 12.9 | 0.00 | 0.15 | 0.00 | 83 | 1008.6 |
| 20260509020004 | 22 | 167 | 6.4 | 11.3 | 0.00 | 0.15 | 0.00 | 83 | 1008.6 |
| 20260509015004 | 22 | 181 | 4.8 | 11.3 | 0.00 | 0.15 | 0.00 | 82 | 1008.7 |
| 20260509014004 | 22 | 136 | 3.2 | 9.7 | 0.00 | 0.15 | 0.00 | 82 | 1008.6 |
| 20260509013004 | 22 | 130 | 3.2 | 4.8 | 0.00 | 0.15 | 0.00 | 82 | 1008.5 |
| 20260509012211 | 22 | 121 | 0.0 | 8.0 | 0.00 | 0.15 | 0.00 | 81 | 1008.5 |
| 20260509011211 | 22 | 146 | 6.4 | 11.3 | 0.00 | 0.15 | 0.00 | 80 | 1008.2 |
| 20260509010004 | 23 | 126 | 6.4 | 12.9 | 0.00 | 0.15 | 0.00 | 79 | 1008.0 |
| 20260509005004 | 23 | 138 | 1.6 | 9.7 | 0.00 | 0.15 | 0.00 | 79 | 1008.0 |
| 20260509004005 | 23 | 127 | 3.2 | 4.8 | 0.00 | 0.15 | 0.00 | 79 | 1008.0 |
| 20260509003211 | 23 | 125 | 1.6 | 4.8 | 0.00 | 0.15 | 0.00 | 78 | 1008.0 |
| 20260509002004 | 23 | 63 | 1.6 | 6.4 | 0.00 | 0.15 | 0.00 | 78 | 1008.0 |
| 20260509001004 | 23 | 147 | 1.6 | 8.0 | 0.00 | 0.15 | 0.00 | 78 | 1008.1 |
| 20260509000004 | 23 | 98 | 3.2 | 9.7 | 0.00 | 0.15 | 0.15 | 77 | 1008.1 |
| 20260508235004 | 23 | 117 | 1.6 | 9.7 | 0.00 | 0.15 | 0.15 | 76 | 1008.3 |
| 20260508234004 | 23 | 93 | 3.2 | 6.4 | 0.00 | 0.15 | 0.15 | 76 | 1008.2 |
| 20260508233004 | 23 | 148 | 3.2 | 9.7 | 0.00 | 0.15 | 0.15 | 76 | 1008.3 |
| 20260508232004 | 23 | 123 | 6.4 | 11.3 | 0.00 | 0.15 | 0.15 | 76 | 1008.2 |
| 20260508231004 | 23 | 180 | 3.2 | 11.3 | 0.00 | 0.15 | 0.15 | 76 | 1008.2 |
| 20260508230004 | 23 | 159 | 9.7 | 12.9 | 0.00 | 0.15 | 0.15 | 76 | 1008.1 |
| 20260508225211 | 23 | 140 | 6.4 | 14.5 | 0.00 | 0.15 | 0.15 | 77 | 1008.1 |
| 20260508224004 | 23 | 168 | 9.7 | 16.1 | 0.00 | 0.15 | 0.15 | 77 | 1008.2 |
| 20260508223211 | 23 | 150 | 6.4 | 17.7 | 0.00 | 0.15 | 0.15 | 77 | 1008.3 |